Regional Weather Roundup
Issued by NWS Cleveland, OH

Home | Current Version | Previous Version | Text Only | Print | Product List | Glossary Off
Versions: 1 2 3 4 5 6 7 8 9 10 11 12 13 14 15 16 17 18 19 20 21 22 23 24 25 26 27 28 29 30 31 32 33 34 35 36 37 38 39 40 41 42 43 44 45 46 47 48 49 50

000
ASUS41 KCLE 221002
RWRCLE
OHIO REGIONAL WEATHER ROUNDUP
NATIONAL WEATHER SERVICE CLEVELAND, OH
600 AM EDT FRI AUG 22 2014

NOTE: "FAIR" INDICATES FEW OR NO CLOUDS BELOW 12,000 FEET WITH NO
SIGNIFICANT WEATHER AND/OR OBSTRUCTIONS TO VISIBILITY.

OHZ001>008-015>018-024>027-034-035-043-044-221100-
   NORTHWEST OHIO

CITY           SKY/WX    TMP DP  RH WIND       PRES   REMARKS
DEFIANCE       CLOUDY    69  67  93 S3        29.97S
FINDLAY        FOG       71  70  96 S3        29.97R VSB 1/4
TOLEDO EXPRESS RAIN      70  69  97 SW3       29.96R FOG
TOLEDO EXEC    MOCLDY    71  68  90 SW5       29.96R
LIMA           CLOUDY    70  68  93 W9        29.99R
$$

OHZ009>014-019>023-028>033-038-089-221100-
   NORTHEAST OHIO

CITY           SKY/WX    TMP DP  RH WIND       PRES   REMARKS
CLE-HOPKINS    MOCLDY    69  67  93 SW5       29.98R
CLE-LAKEFRONT  CLOUDY    73  68  84 S5        29.95R
CUY CO. ARPT   NOT AVBL
LORAIN-ELYRIA  CLEAR     70  66  87 SW5       29.97R
ASHTABULA      CLOUDY    67  66  97 CALM      29.97R FOG
AKRON-CANTON   CLOUDY    69  66  90 S6        29.98S
WOOSTER        CLOUDY    69  67  93 SW5       30.00R
MANSFIELD      CLOUDY    70  70 100 S6        29.99S FOG
YOUNGSTOWN     FOG       68  67  96 S3        29.99R VSB 1/2
$$

OHZ042-051>053-060>062-070>072-077>081-221100-
  SOUTHWEST OHIO

CITY           SKY/WX    TMP DP  RH WIND       PRES   REMARKS
CINC-COVINGTON CLOUDY    70  68  93 S7        29.99F FOG
CINC-LUNKEN    MOCLDY    69  69 100 SW3       29.98F
HAMILTON       MOCLDY    71  70  96 E3        29.98F FOG
DAYTON         LGT RAIN  72  69  90 CALM      30.00S
WRIGHT-PAT AFB CLOUDY    71  70  96 E1        29.99S
DAYTON GENERAL CLOUDY    70  69  97 SW5       29.98S
WILMINGTON     LGT RAIN  69  67  93 SW6       30.00R
$$

OHZ036-037-039>041-045>050-054>059-063>069-073>076-082>088-221100-
  CENTRAL AND SOUTHEAST OHIO

CITY           SKY/WX    TMP DP  RH WIND       PRES   REMARKS
COLUMBUS       PTCLDY    70  66  87 CALM      29.98S FOG
OSU AIRPORT    CLOUDY    68  67  96 S3        29.99S
BOLTON FIELD   MOCLDY    66  66 100 CALM      29.99S FOG
RICKENBACK AFB MOCLDY    67  63  87 SE3       29.97R FOG
NEWARK         MOCLDY    68  66  93 CALM      29.99R
MARION         FOG       69  68  96 NW3       29.99R VSB 1
LANCASTER      PTCLDY    67  65  93 CALM      30.00S FOG
ZANESVILLE     MOCLDY    69  67  93 CALM      30.00R
NEW PHILLY     CLOUDY    68  68 100 S3        29.99R
$$



USA.gov is the U.S. government's official web portal to all federal, state and local government web resources and services.